OE9XVI-6 Weather Reports


time (UTC)temp
F
wind
direction
speed
knots
gust
knots
rain 1hr
in
rain 24hr
in
rain mn
in
humidity
%
barometer
mb
20260502204701 60 178 0.0 0.0 0.00 0.00 0.00 45 1020.7
20260502203702 60 157 3.5 3.5 0.00 0.00 0.00 44 1020.9
20260502201706 61 99 0.0 3.5 0.00 0.00 0.00 44 1021.0
20260502195701 62 160 0.0 0.0 0.00 0.00 0.00 41 1021.1
20260502193701 63 164 0.9 0.9 0.00 0.00 0.00 39 1021.0
20260502192703 63 108 0.0 1.7 0.00 0.00 0.00 39 1021.0
20260502191701 64 88 0.0 2.6 0.00 0.00 0.00 38 1021.0
20260502190703 64 150 2.6 3.5 0.00 0.00 0.00 39 1021.0
20260502184701 64 292 0.0 0.0 0.00 0.00 0.00 37 1020.9
20260502183701 65 326 0.9 1.7 0.00 0.00 0.00 37 1020.7
20260502182704 66 322 0.0 2.6 0.00 0.00 0.00 35 1020.7
20260502181701 67 324 1.7 4.3 0.00 0.00 0.00 34 1020.7
20260502163701 87 327 6.1 6.1 0.00 0.00 0.00 17 1021.0
20260502162701 85 334 4.3 7.8 0.00 0.00 0.00 20 1021.2
20260502160704 87 354 4.3 6.1 0.00 0.00 0.00 20 1021.4
20260502151701 85 253 0.0 4.3 0.00 0.00 0.00 23 1021.9
20260502150701 83 19 0.9 6.1 0.00 0.00 0.00 26 1022.0
20260502130703 68 296 0.9 7.0 0.00 0.00 0.00 46 1023.4
20260502123702 66 268 1.7 7.8 0.00 0.00 0.00 52 1023.7
20260502122702 65 317 2.6 7.8 0.00 0.00 0.00 50 1023.7
20260502121702 64 312 3.5 5.2 0.00 0.00 0.00 52 1023.9
20260502120702 64 312 2.6 6.1 0.00 0.00 0.00 52 1024.0
20260502115702 64 284 0.9 4.3 0.00 0.00 0.00 52 1024.2
20260502114702 63 324 4.3 6.1 0.00 0.00 0.00 52 1024.2
20260502113702 64 333 4.3 4.3 0.00 0.00 0.00 50 1024.4
20260502112702 64 316 2.6 5.2 0.00 0.00 0.00 52 1024.5
20260502111702 63 327 3.5 7.0 0.00 0.00 0.00 55 1024.6
20260502110702 63 316 2.6 5.2 0.00 0.00 0.00 55 1024.7
20260502105702 63 326 1.7 3.5 0.00 0.00 0.00 52 1024.7
20260502104702 63 358 0.0 3.5 0.00 0.00 0.00 53 1024.8
20260502103702 62 330 3.5 4.3 0.00 0.00 0.00 51 1024.9
20260502102702 62 341 0.0 6.1 0.00 0.00 0.00 48 1025.1
20260502101702 62 330 5.2 5.2 0.00 0.00 0.00 47 1025.1
20260502100702 62 326 3.5 5.2 0.00 0.00 0.00 49 1025.2
20260502090702 60 323 4.3 5.2 0.00 0.00 0.00 47 1025.5
20260502070702 57 317 3.5 3.5 0.00 0.00 0.00 52 1025.6
20260502065702 57 331 0.9 3.5 0.00 0.00 0.00 52 1025.6
20260502064702 57 310 3.5 3.5 0.00 0.00 0.00 49 1025.6
20260502063702 56 329 0.0 0.0 0.00 0.00 0.00 54 1025.6
20260502062702 56 329 0.0 0.9 0.00 0.00 0.00 57 1025.8
20260502061702 56 94 0.0 0.0 0.00 0.00 0.00 57 1025.6
20260502060702 55 94 0.0 0.9 0.00 0.00 0.00 57 1025.6
20260502055702 55 127 1.7 2.6 0.00 0.00 0.00 58 1025.8
20260502054702 54 150 2.6 4.3 0.00 0.00 0.00 59 1025.6
20260502053702 54 163 2.6 3.5 0.00 0.00 0.00 58 1025.6
20260502052702 53 101 0.0 0.0 0.00 0.00 0.00 58 1025.6
20260502051702 53 101 0.0 0.0 0.00 0.00 0.00 57 1025.5
20260502050702 53 101 0.0 0.0 0.00 0.00 0.00 58 1025.5
20260502045702 52 101 0.0 0.0 0.00 0.00 0.00 58 1025.4
20260502044702 53 305 0.0 0.9 0.00 0.00 0.00 57 1025.4
20260502043702 52 289 0.0 1.7 0.00 0.00 0.00 59 1025.4
20260502042702 51 113 0.0 0.0 0.00 0.00 0.00 61 1025.4
20260502041702 50 113 0.0 0.0 0.00 0.00 0.00 61 1025.4
20260502040702 50 130 0.0 1.7 0.00 0.00 0.00 61 1025.3
20260502035703 50 158 0.0 0.0 0.00 0.00 0.00 61 1025.3
20260502034703 51 150 2.6 3.5 0.00 0.00 0.00 60 1025.3
20260502033703 51 286 0.0 0.0 0.00 0.00 0.00 59 1025.3
20260502032703 52 286 0.0 0.0 0.00 0.00 0.00 59 1025.3
20260502031703 51 306 0.0 0.0 0.00 0.00 0.00 60 1025.3
20260502030703 51 215 0.0 0.0 0.00 0.00 0.00 60 1025.3
20260502025703 51 215 0.0 0.0 0.00 0.00 0.00 61 1025.3
20260502024703 51 181 0.0 0.9 0.00 0.00 0.00 61 1025.4
20260502023703 50 149 0.0 0.0 0.00 0.00 0.00 60 1025.4
20260502022703 50 149 0.0 1.7 0.00 0.00 0.00 60 1025.4
20260502021703 50 185 2.6 2.6 0.00 0.00 0.00 61 1025.5
20260502020703 50 158 3.5 3.5 0.00 0.00 0.00 61 1025.5
20260502015703 50 164 4.3 4.3 0.00 0.00 0.00 60 1025.5
20260502014703 51 147 2.6 2.6 0.00 0.00 0.00 59 1025.5
20260502013703 51 167 0.9 2.6 0.00 0.00 0.00 59 1025.5
20260502012703 51 219 0.0 0.0 0.00 0.00 0.00 58 1025.6
20260502011703 51 219 0.0 0.0 0.00 0.00 0.00 58 1025.6
20260502010703 51 219 0.0 0.0 0.00 0.00 0.00 59 1025.6
20260502005703 51 219 0.0 0.0 0.00 0.00 0.00 58 1025.6
20260502004703 51 219 0.0 0.0 0.00 0.00 0.00 58 1025.8
20260502003703 51 219 0.0 0.0 0.00 0.00 0.00 58 1025.8
20260502002703 51 219 0.0 0.0 0.00 0.00 0.00 59 1025.9
20260502001703 51 150 2.6 4.3 0.00 0.00 0.00 58 1025.9
20260502000703 51 151 1.7 2.6 0.00 0.00 0.00 56 1026.0
20260501235703 52 142 0.9 1.7 0.00 0.00 0.00 56 1026.0
20260501234703 52 150 2.6 2.6 0.00 0.00 0.00 55 1026.1
20260501233703 53 165 0.0 0.9 0.00 0.00 0.00 53 1026.1
20260501232703 53 285 0.0 0.0 0.00 0.00 0.00 53 1026.1
20260501231703 52 87 0.0 0.0 0.00 0.00 0.00 54 1026.1
20260501230703 52 87 0.0 0.0 0.00 0.00 0.00 54 1026.1
20260501225703 52 87 0.0 0.0 0.00 0.00 0.00 53 1026.1
20260501224703 52 195 0.0 0.0 0.00 0.00 0.00 52 1026.2
20260501223703 53 195 0.0 0.0 0.00 0.00 0.00 52 1026.2
20260501222703 53 195 0.0 0.0 0.00 0.00 0.00 52 1026.3
20260501221703 53 195 0.0 0.0 0.00 0.00 0.00 54 1026.5
20260501220703 53 195 0.0 0.0 0.00 0.00 0.00 52 1026.3
20260501215703 54 195 0.0 1.7 0.00 0.00 0.00 52 1026.3
20260501214703 54 330 0.0 0.0 0.00 0.00 0.00 49 1026.2
20260501213703 54 330 0.0 0.0 0.00 0.00 0.00 48 1026.2
20260501212703 54 330 0.0 0.0 0.00 0.00 0.00 48 1026.3
20260501211703 55 330 0.0 0.0 0.00 0.00 0.00 47 1026.3
20260501210703 55 330 0.0 0.0 0.00 0.00 0.00 47 1026.2
20260501205703 55 330 0.0 0.0 0.00 0.00 0.00 47 1026.2